Погода в Мераге

Иран     37°23′22″N   46°14′20″E
темп.,
°C
ветер,
м/с
пор.,
м/с
влажн.,
%
обл.,
%
осадки,
мм/ч
давл.,
гПа
погр.,
м
13 августа, сб
сб1301:30+23всв611400 0.0 1008366
04:30+21всв46410 0.0 1009241
07:30+21всв45400 0.0 1010220
10:30+25в46260 0.0 1009819
13:30+29вюв76180 0.0 10071336
16:30+30в66170 0.0 10061459
19:30+29в67180 0.0 1004911
22:30+25всв69220 0.0 1007337
14 августа, вс
вс1401:30+24всв46240 0.0 1007223
04:30+22всв46270 0.0 1007156
07:30+22всв34300 0.0 1008143
10:30+26ююв33210 0.0 1007762
13:30+30ююв44160 0.0 10061322
16:30+32юз35120 0.0 10042060
19:30+31з12150 0.0 1003555
22:30+26юв12210 0.0 100584
15 августа, пн
пн1501:30+25всв34200 0.0 1006201
04:30+23всв34250 0.0 1007148
07:30+23всв34280 0.0 100898
10:30+28ююв32180 0.0 1008856
13:30+32ююз33120 0.0 10071860
16:30+34юз4380 0.0 10052825
19:30+32зюз11100 0.0 1005488
22:30+27св44160 0.0 100855
16 августа, вт
вт1601:30+25св56240 0.0 1009193
04:30+24всв45260 0.0 1009137
07:30+24всв44280 0.0 1011114
10:30+30юв34170 0.0 10101005
13:30+33юв54130 0.0 10082259
16:30+34ююз3292 0.0 10064182
19:30+32св13122 0.0 10061452
22:30+27всв814201 0.0 1009522
17 августа, ср
ср1701:30+26всв692185 0.0 1010324
04:30+24всв572135 0.0 1010263
07:30+24всв68171 0.0 1011249
10:30+29в68121 0.0 1010984
13:30+32в98100 0.0 10091719
16:30+32в9781 0.0 10072813
19:30+30в9101031 0.0 10071083
22:30+25всв711187 0.0 1010431